TimeCDT,TemperatureF,Dew PointF,Humidity,Sea Level PressureIn,VisibilityMPH,Wind Direction,Wind SpeedMPH,Gust SpeedMPH,PrecipitationIn,Events,Conditions,WindDirDegrees,DateUTC
12:07 AM,39.2,33.8,81,30.17,10.0,North,13.8,-,N/A,,Overcast,360,2013-04-22 05:07:00
12:53 AM,37.9,34.0,86,30.18,9.0,NNE,11.5,-,N/A,,Overcast,20,2013-04-22 05:53:00
1:53 AM,39.0,35.1,86,30.18,7.0,NE,6.9,-,N/A,,Overcast,40,2013-04-22 06:53:00
2:53 AM,37.9,34.0,86,30.16,9.0,NNE,9.2,-,N/A,,Overcast,20,2013-04-22 07:53:00
3:53 AM,37.9,34.0,86,30.15,10.0,NNE,10.4,-,N/A,,Overcast,20,2013-04-22 08:53:00
4:53 AM,37.0,34.0,89,30.15,9.0,NNE,15.0,-,N/A,,Overcast,30,2013-04-22 09:53:00
5:53 AM,36.0,34.0,93,30.16,4.0,NE,12.7,-,N/A,,Overcast,40,2013-04-22 10:53:00
6:30 AM,35.6,33.8,93,30.14,2.5,NNE,11.5,-,0.00,Rain,Light Rain,30,2013-04-22 11:30:00
6:51 AM,35.6,33.8,93,30.13,2.5,NNE,17.3,-,0.00,Rain,Light Rain,30,2013-04-22 11:51:00
6:53 AM,36.0,34.0,93,30.16,2.5,NNE,12.7,-,0.00,Rain,Light Rain,30,2013-04-22 11:53:00
7:35 AM,35.6,33.8,93,30.12,3.0,NE,19.6,-,0.00,,Overcast,40,2013-04-22 12:35:00
7:53 AM,36.0,33.1,89,30.15,4.0,NE,17.3,-,0.00,,Overcast,50,2013-04-22 12:53:00
8:30 AM,35.6,33.8,93,30.13,2.0,NE,16.1,-,0.00,Rain,Light Rain,50,2013-04-22 13:30:00
8:51 AM,35.6,33.8,93,30.13,1.8,NE,18.4,-,0.00,Rain,Light Rain,50,2013-04-22 13:51:00
8:53 AM,35.1,33.1,92,30.16,2.0,NE,16.1,-,0.00,Rain,Light Rain,50,2013-04-22 13:53:00
9:11 AM,35.6,32.0,87,30.12,4.0,NE,19.6,-,0.00,,Overcast,50,2013-04-22 14:11:00
9:53 AM,35.1,33.1,92,30.14,2.5,NE,15.0,-,0.02,Rain,Rain,50,2013-04-22 14:53:00
10:18 AM,35.6,33.8,93,30.10,5.0,NE,16.1,-,0.02,Rain,Light Rain,50,2013-04-22 15:18:00
10:53 AM,36.0,33.1,89,30.15,4.0,NE,17.3,-,0.03,Rain,Light Rain,40,2013-04-22 15:53:00
11:04 AM,35.6,33.8,93,30.12,2.0,NE,16.1,-,0.01,Rain,Light Rain,40,2013-04-22 16:04:00
11:21 AM,35.6,33.8,93,30.10,1.5,NE,16.1,-,0.02,Rain,Light Rain,50,2013-04-22 16:21:00
11:53 AM,36.0,34.0,93,30.14,2.0,NE,11.5,-,0.04,Rain,Light Rain,40,2013-04-22 16:53:00
12:10 PM,35.6,33.8,93,30.12,1.8,North,12.7,-,0.00,Snow,Light Snow,360,2013-04-22 17:10:00
12:53 PM,36.0,33.1,89,30.13,2.5,NNE,18.4,-,0.03,Snow,Light Snow,20,2013-04-22 17:53:00
1:00 PM,35.6,33.8,93,30.09,5.0,NNE,18.4,-,0.00,,Overcast,20,2013-04-22 18:00:00
1:27 PM,37.4,33.8,87,30.06,10.0,NNE,24.2,31.1,0.00,Rain,Light Rain,30,2013-04-22 18:27:00
1:39 PM,35.6,33.8,93,30.07,9.0,NNE,19.6,-,0.00,Rain,Light Rain,30,2013-04-22 18:39:00
1:53 PM,36.0,32.0,86,30.11,5.0,NNE,19.6,-,0.01,Rain,Light Rain,30,2013-04-22 18:53:00
2:53 PM,36.0,32.0,86,30.09,9.0,NNE,23.0,31.1,0.02,,Overcast,30,2013-04-22 19:53:00
3:53 PM,35.1,32.0,89,30.08,4.0,NNE,19.6,27.6,0.03,Rain,Rain,20,2013-04-22 20:53:00
4:53 PM,34.0,30.9,89,30.10,1.8,North,12.7,26.5,0.05,Snow,Light Snow,360,2013-04-22 21:53:00
5:01 PM,33.8,30.2,87,30.06,2.0,North,23.0,29.9,0.01,Snow,Light Snow,360,2013-04-22 22:01:00
5:08 PM,33.8,30.2,87,30.06,3.0,North,18.4,29.9,0.02,Snow,Light Snow,10,2013-04-22 22:08:00
5:16 PM,33.8,30.2,87,30.07,1.8,North,19.6,27.6,0.02,Snow,Light Snow,360,2013-04-22 22:16:00
5:32 PM,33.8,30.2,87,30.07,1.0,North,19.6,27.6,0.04,,Overcast,360,2013-04-22 22:32:00
5:45 PM,33.8,30.2,87,30.08,0.8,North,19.6,26.5,0.05,,Overcast,360,2013-04-22 22:45:00
5:53 PM,33.1,30.9,92,30.11,0.5,North,23.0,29.9,0.06,Fog,Fog,10,2013-04-22 22:53:00
6:22 PM,32.0,30.2,93,30.07,0.2,North,23.0,31.1,0.03,Fog,Fog,10,2013-04-22 23:22:00
6:34 PM,32.0,30.2,93,30.07,0.5,North,24.2,32.2,0.04,Fog,Fog,10,2013-04-22 23:34:00
6:42 PM,32.0,30.2,93,30.07,0.2,North,20.7,29.9,0.05,Fog,Fog,10,2013-04-22 23:42:00
6:53 PM,32.0,30.0,92,30.11,0.2,North,24.2,34.5,0.07,Fog,Fog,10,2013-04-22 23:53:00
7:53 PM,32.0,28.9,88,30.14,0.2,North,23.0,29.9,0.07,Fog,Fog,10,2013-04-23 00:53:00
8:09 PM,32.0,28.4,87,30.10,0.5,North,18.4,29.9,0.02,Fog,Fog,360,2013-04-23 01:09:00
8:27 PM,32.0,28.4,87,30.13,1.8,North,21.9,27.6,0.03,,Overcast,350,2013-04-23 01:27:00
8:33 PM,32.0,28.4,87,30.14,3.0,North,19.6,28.8,0.03,,Overcast,350,2013-04-23 01:33:00
8:43 PM,32.0,28.4,87,30.14,4.0,North,24.2,31.1,0.03,,Overcast,350,2013-04-23 01:43:00
8:53 PM,32.0,28.0,85,30.19,4.0,North,23.0,34.5,0.03,,Overcast,350,2013-04-23 01:53:00
9:53 PM,30.9,28.0,89,30.21,4.0,North,20.7,31.1,N/A,,Overcast,350,2013-04-23 02:53:00
10:53 PM,30.9,27.0,85,30.22,9.0,North,19.6,28.8,N/A,,Overcast,350,2013-04-23 03:53:00
11:46 PM,30.2,26.6,86,30.17,9.0,North,23.0,29.9,0.00,Snow,Light Snow,350,2013-04-23 04:46:00
11:53 PM,30.0,27.0,88,30.22,9.0,North,20.7,-,0.00,Snow,Light Snow,350,2013-04-23 04:53:00